User: anonymous   Login
Location: Unspecified
(0.0000°N, 0.0000°E)
Time: 12:08:52
(UTC+02:00)
Language:

Meteor 1-10 Rocket - Orbit

View from above orbital plane
View from above orbital plane
View from above satellite
View from above satellite

Ground track
Ground track

The orbit data is extracted from the following two-line orbital elements,

1  5732U 71120B   17232.56153015 +.00000150 +00000-0 +83523-4 0  9990
2  5732 081.2494 060.9560 0051031 221.8450 137.8813 14.05944128339830
Epoch (UTC): 20 August 2017 13:28:36
Eccentricity: 0.0051031
inclination: 81.2494°
perigee height: 836 km
apogee height: 910 km
right ascension of ascending node: 60.9560°
argument of perigee: 221.8450°
revolutions per day: 14.05944128
mean anomaly at epoch: 137.8813°
orbit number at epoch: 33983

The dashed part of the orbit path shows where the satellite is in the earth's shadow,  

DLR